Weather History for Hereford, TX

Change the Weather History Date:

Wednesday, January 4, 2012

  Actual Average (KAMA) Record (KAMA)
Temperature  
Mean Temperature 44 °F 36 °F  
Max Temperature 55 °F 50 °F 74 °F (1907)
Min Temperature 32 °F 23 °F -11 °F (1959)
Degree Days  
Heating Degree Days 22 29  
Month to date heating degree days 116  
Since 1 July heating degree days 1833  
Cooling Degree Days 0 0  
Month to date cooling degree days 0  
Year to date cooling degree days 0  
Moisture  
Dew Point 27 °F    
Average Humidity 57    
Maximum Humidity 81    
Minimum Humidity 26    
Precipitation  
Precipitation 0.00 in 0.02 in 1.01 in (1932)
Month to date precipitation 0.08  
Year to date precipitation 0.08  
Snow  
Snow 0.00 in 0.10 in 3.00 in (1942)
Month to date snowfall 0.4  
Since 1 July snowfall 6.8  
Snow Depth -    
Sea Level Pressure  
Sea Level Pressure 30.38 in    
Wind  
Wind Speed 10 mph (North)    
Max Wind Speed 17 mph    
Max Gust Speed 21 mph    
Visibility 10 miles    
Events      
T = Trace of Precipitation, MM = Missing Value Source: NWS Daily Summary

Daily Weather History Graph

Daily Weather History Graph

Search for Another Location

Airport:

Trip Planner

Search our weather history database for the weather conditions in past years. The results will help you decide how hot, cold, wet, or windy it might be!

Date:

Astronomy

Jan. 04, 2012 Rise Set
Actual Time 7:57 AM CST 5:51 PM CST
Civil Twilight 7:29 AM CST 6:18 PM CST
Nautical Twilight 6:57 AM CST 6:50 PM CST
Astronomical Twilight 6:27 AM CST 7:21 PM CST
Moon 2:14 PM CST (1/4) 3:49 AM CST (1/4)
Length of Visible Light 10h 49m
Length of Day
9h 53m
Waxing Gibbous, 81% of the Moon is Illuminated
Jan 4
Waxing Gibbous
Jan 9
Full
Jan 16
Last Quarter
Jan 23
New
Jan 30
First Quarter

Hourly Weather History & Observations

Time (CST) Temp. Windchill Dew Point Humidity Pressure Visibility Wind Dir Wind Speed Gust Speed Precip Events Conditions
12:15 AM 35.6 °F 29.2 °F 30.2 °F 81% 30.21 in 10.0 mi North 8.1 mph - N/A   Clear
12:35 AM 35.6 °F 28.0 °F 30.2 °F 81% 30.21 in 10.0 mi NNW 10.4 mph - N/A   Clear
12:55 AM 37.4 °F 29.8 °F 30.2 °F 75% 30.22 in 10.0 mi North 11.5 mph - N/A   Clear
1:15 AM 35.6 °F 28.6 °F 30.2 °F 81% 30.23 in 10.0 mi North 9.2 mph - N/A   Clear
1:35 AM 35.6 °F 28.0 °F 30.2 °F 81% 30.24 in 10.0 mi North 10.4 mph - N/A   Clear
2:15 AM 37.4 °F 29.3 °F 30.2 °F 75% 30.26 in 10.0 mi North 12.7 mph - N/A   Clear
2:35 AM 35.6 °F 28.0 °F 28.4 °F 75% 30.27 in 10.0 mi NNW 10.4 mph - N/A   Clear
2:55 AM 35.6 °F 30.7 °F 28.4 °F 75% 30.28 in 10.0 mi North 5.8 mph - N/A   Clear
3:15 AM 37.4 °F 30.8 °F 28.4 °F 70% 30.29 in 10.0 mi North 9.2 mph - N/A   Clear
3:35 AM 35.6 °F 28.0 °F 28.4 °F 75% 30.29 in 10.0 mi North 10.4 mph - N/A   Clear
4:15 AM 39.2 °F 31.2 °F 28.4 °F 65% 30.31 in 10.0 mi North 13.8 mph - N/A   Clear
4:35 AM 41.0 °F 33.9 °F 28.4 °F 61% 30.31 in 10.0 mi North 12.7 mph - N/A   Clear
4:55 AM 39.2 °F 30.5 °F 28.4 °F 65% 30.32 in 10.0 mi North 16.1 mph - N/A   Clear
5:15 AM 37.4 °F 28.5 °F 28.4 °F 70% 30.33 in 10.0 mi North 15.0 mph - N/A   Clear
5:35 AM 37.4 °F 30.3 °F 28.4 °F 70% 30.34 in 10.0 mi North 10.4 mph - N/A   Clear
5:55 AM 37.4 °F 30.3 °F 26.6 °F 65% 30.35 in 10.0 mi NNE 10.4 mph - N/A   Clear
6:15 AM 35.6 °F 28.0 °F 26.6 °F 70% 30.36 in 10.0 mi NNE 10.4 mph - N/A   Clear
6:35 AM 35.6 °F 28.0 °F 28.4 °F 75% 30.37 in 10.0 mi North 10.4 mph - N/A   Clear
6:55 AM 35.6 °F 27.1 °F 28.4 °F 75% 30.39 in 10.0 mi North 12.7 mph - N/A   Clear
7:35 AM 33.8 °F 26.4 °F 28.4 °F 81% 30.42 in 10.0 mi North 9.2 mph - N/A   Clear
7:55 AM 32.0 °F 23.6 °F 26.6 °F 80% 30.42 in 10.0 mi NNW 10.4 mph - N/A   Clear
8:15 AM 32.0 °F 23.6 °F 26.6 °F 80% 30.43 in 10.0 mi NNW 10.4 mph - N/A   Clear
8:35 AM 32.0 °F 23.0 °F 26.6 °F 80% 30.45 in 10.0 mi NNW 11.5 mph - N/A   Clear
8:55 AM 32.0 °F 23.6 °F 26.6 °F 80% 30.46 in 10.0 mi NNW 10.4 mph - N/A   Clear
9:15 AM 35.6 °F 27.1 °F 28.4 °F 75% 30.46 in 10.0 mi North 12.7 mph - N/A   Clear
9:35 AM 39.2 °F 30.5 °F 28.4 °F 65% 30.47 in 10.0 mi North 16.1 mph - N/A   Clear
9:55 AM 42.8 °F 34.8 °F 28.4 °F 57% 30.48 in 10.0 mi North 17.3 mph - N/A   Clear
10:15 AM 42.8 °F 35.1 °F 28.4 °F 57% 30.49 in 10.0 mi North 16.1 mph - N/A   Clear
10:35 AM 44.6 °F 37.4 °F 28.4 °F 53% 30.49 in 10.0 mi NNE 16.1 mph - N/A   Clear
10:55 AM 46.4 °F 40.4 °F 26.6 °F 46% 30.49 in 10.0 mi NNE 13.8 mph - N/A   Clear
11:15 AM 48.2 °F - 26.6 °F 43% 30.48 in 10.0 mi NNE 17.3 mph - N/A   Clear
11:35 AM 50.0 °F - 26.6 °F 40% 30.48 in 10.0 mi NNE 16.1 mph 20.7 mph N/A   Clear
11:55 AM 51.8 °F - 26.6 °F 38% 30.47 in 10.0 mi NNE 15.0 mph - N/A   Clear
12:15 PM 51.8 °F - 24.8 °F 35% 30.46 in 10.0 mi NNE 12.7 mph 16.1 mph N/A   Clear
12:35 PM 51.8 °F - 26.6 °F 38% 30.45 in 10.0 mi North 10.4 mph - N/A   Clear
12:55 PM 51.8 °F - 24.8 °F 35% 30.44 in 10.0 mi North 9.2 mph - N/A   Clear
1:15 PM 53.6 °F - 26.6 °F 35% 30.43 in 10.0 mi North 6.9 mph - N/A   Clear
1:35 PM 53.6 °F - 24.8 °F 33% 30.42 in 10.0 mi North 5.8 mph - N/A   Clear
1:55 PM 53.6 °F - 24.8 °F 33% 30.42 in 10.0 mi North 8.1 mph - N/A   Clear
2:15 PM 53.6 °F - 24.8 °F 33% 30.42 in 10.0 mi North 8.1 mph - N/A   Clear
2:35 PM 55.4 °F - 24.8 °F 31% 30.42 in 10.0 mi NNW 8.1 mph - N/A   Clear
2:55 PM 55.4 °F - 24.8 °F 31% 30.42 in 10.0 mi North 9.2 mph - N/A   Clear
3:15 PM 55.4 °F - 24.8 °F 31% 30.41 in 10.0 mi Calm Calm - N/A   Clear
4:15 PM 55.4 °F - 21.2 °F 26% 30.40 in 10.0 mi NW 5.8 mph - N/A   Clear
4:35 PM 55.4 °F - 21.2 °F 26% 30.39 in 10.0 mi North 4.6 mph - N/A   Clear
4:55 PM 55.4 °F - 23.0 °F 29% 30.39 in 10.0 mi NW 4.6 mph - N/A   Clear
5:15 PM 53.6 °F - 23.0 °F 30% 30.40 in 10.0 mi NW 4.6 mph - N/A   Clear
5:35 PM 51.8 °F - 23.0 °F 33% 30.39 in 10.0 mi WNW 4.6 mph - N/A   Clear
5:55 PM 50.0 °F - 26.6 °F 40% 30.39 in 10.0 mi NW 4.6 mph - N/A   Clear
6:15 PM 42.8 °F 40.1 °F 23.0 °F 46% 30.39 in 10.0 mi WNW 4.6 mph - N/A   Clear
6:35 PM 41.0 °F 38.0 °F 23.0 °F 49% 30.39 in 10.0 mi WNW 4.6 mph - N/A   Clear
6:55 PM 41.0 °F 38.0 °F 23.0 °F 49% 30.39 in 10.0 mi WSW 4.6 mph - N/A   Clear
7:15 PM 44.6 °F 42.2 °F 24.8 °F 46% 30.38 in 10.0 mi WSW 4.6 mph - N/A   Clear
7:35 PM 39.2 °F 37.0 °F 26.6 °F 61% 30.39 in 10.0 mi WSW 3.5 mph - N/A   Clear
7:55 PM 33.8 °F 27.7 °F 23.0 °F 65% 30.38 in 10.0 mi West 6.9 mph - N/A   Clear
8:15 PM 32.0 °F 26.4 °F 23.0 °F 69% 30.38 in 10.0 mi WSW 5.8 mph - N/A   Clear
8:35 PM 32.0 °F 26.4 °F 23.0 °F 69% 30.38 in 10.0 mi West 5.8 mph - N/A   Clear
8:55 PM 32.0 °F 24.8 °F 21.2 °F 64% 30.38 in 10.0 mi WSW 8.1 mph - N/A   Clear
9:15 PM 33.8 °F 28.6 °F 24.8 °F 70% 30.38 in 10.0 mi WSW 5.8 mph - N/A   Clear
9:35 PM 32.0 °F 28.7 °F 23.0 °F 69% 30.38 in 10.0 mi WSW 3.5 mph - N/A   Clear
9:55 PM 28.4 °F 21.2 °F 21.2 °F 74% 30.37 in 10.0 mi West 6.9 mph - N/A   Clear
10:15 PM 30.2 °F 23.4 °F 23.0 °F 75% 30.37 in 10.0 mi WSW 6.9 mph - N/A   Clear
10:35 PM 30.2 °F 22.6 °F 23.0 °F 75% 30.37 in 10.0 mi WSW 8.1 mph - N/A   Clear
10:55 PM 32.0 °F 26.4 °F 21.2 °F 64% 30.36 in 10.0 mi WSW 5.8 mph - N/A   Clear
11:15 PM 28.4 °F 20.4 °F 21.2 °F 74% 30.36 in 10.0 mi West 8.1 mph - N/A   Clear
11:35 PM 28.4 °F 22.2 °F 21.2 °F 74% 30.36 in 10.0 mi West 5.8 mph - N/A   Clear
11:55 PM 28.4 °F 20.4 °F 21.2 °F 74% 30.35 in 10.0 mi WSW 8.1 mph - N/A   Clear